| time (UTC) | temp C | wind direction | speed KPH | gust KPH | rain 1hr cm | rain 24hr cm | rain mn cm | humidity % | barometer mb |
| 20260508121546 | 7 | 32 | 0.0 | 4.8 | 0.00 | 0.00 | 0.00 | 52 | 1024.7 |
| 20260508120045 | 7 | 150 | 0.0 | 1.6 | 0.00 | 0.00 | 0.00 | 58 | 1024.6 |
| 20260508114551 | 5 | 89 | 1.6 | 6.4 | 0.00 | 0.00 | 0.00 | 67 | 1024.7 |
| 20260508113043 | 7 | 294 | 3.2 | 12.9 | 0.00 | 0.00 | 0.00 | 50 | 1024.7 |
| 20260508111554 | 8 | 47 | 0.0 | 6.4 | 0.00 | 0.00 | 0.00 | 41 | 1024.2 |
| 20260508110037 | 8 | 63 | 0.0 | 8.0 | 0.00 | 0.00 | 0.00 | 44 | 1024.1 |
| 20260508104537 | 8 | 269 | 0.0 | 3.2 | 0.00 | 0.00 | 0.00 | 44 | 1024.2 |
| 20260508103037 | 8 | 249 | 0.0 | 1.6 | 0.00 | 0.00 | 0.00 | 44 | 1024.1 |
| 20260508101535 | 8 | 240 | 0.0 | 4.8 | 0.00 | 0.00 | 0.00 | 43 | 1023.9 |
| 20260508100033 | 8 | 233 | 0.0 | 3.2 | 0.00 | 0.00 | 0.00 | 44 | 1023.9 |
| 20260508094531 | 8 | 214 | 0.0 | 4.8 | 0.00 | 0.00 | 0.00 | 43 | 1023.9 |
| 20260508093031 | 8 | 39 | 3.2 | 11.3 | 0.00 | 0.00 | 0.00 | 46 | 1023.7 |
| 20260508091532 | 8 | 60 | 0.0 | 3.2 | 0.00 | 0.00 | 0.00 | 43 | 1023.7 |
| 20260508090025 | 7 | 249 | 0.0 | 1.6 | 0.00 | 0.00 | 0.00 | 48 | 1023.6 |
| 20260508084522 | 6 | 236 | 0.0 | 4.8 | 0.00 | 0.00 | 0.00 | 52 | 1023.6 |
| 20260508083021 | 6 | 59 | 0.0 | 0.0 | 0.00 | 0.00 | 0.00 | 50 | 1023.4 |
| 20260508081519 | 6 | 311 | 0.0 | 3.2 | 0.00 | 0.00 | 0.00 | 51 | 1023.4 |
| 20260508080023 | 6 | 300 | 0.0 | 3.2 | 0.00 | 0.00 | 0.00 | 51 | 1023.3 |
| 20260508074518 | 6 | 45 | 0.0 | 11.3 | 0.00 | 0.00 | 0.00 | 50 | 1023.1 |
| 20260508073014 | 6 | 128 | 0.0 | 4.8 | 0.00 | 0.00 | 0.00 | 53 | 1023.1 |
| 20260508071511 | 6 | 324 | 0.0 | 6.4 | 0.00 | 0.00 | 0.00 | 56 | 1023.0 |
| 20260508070009 | 6 | 248 | 0.0 | 6.4 | 0.00 | 0.00 | 0.00 | 58 | 1022.8 |
| 20260508064504 | 5 | 248 | 0.0 | 0.0 | 0.00 | 0.00 | 0.00 | 62 | 1022.9 |
| 20260508063105 | 5 | 281 | 0.0 | 3.2 | 0.00 | 0.00 | 0.00 | 65 | 1022.8 |
| 20260508061604 | 5 | 147 | 0.0 | 0.0 | 0.00 | 0.00 | 0.00 | 68 | 1022.7 |
| 20260508060053 | 4 | 245 | 0.0 | 1.6 | 0.00 | 0.00 | 0.00 | 69 | 1022.6 |
| 20260508054550 | 4 | 301 | 0.0 | 1.6 | 0.00 | 0.00 | 0.00 | 71 | 1022.4 |
| 20260508053056 | 3 | 225 | 0.0 | 0.0 | 0.00 | 0.00 | 0.00 | 73 | 1022.3 |
| 20260508051547 | 3 | 328 | 0.0 | 0.0 | 0.00 | 0.00 | 0.00 | 74 | 1022.1 |
| 20260508050041 | 3 | 122 | 0.0 | 0.0 | 0.00 | 0.00 | 0.00 | 76 | 1022.0 |
| 20260508044538 | 2 | 311 | 0.0 | 0.0 | 0.00 | 0.00 | 0.00 | 78 | 1021.9 |
| 20260508043034 | 2 | 314 | 0.0 | 0.0 | 0.00 | 0.00 | 0.00 | 81 | 1021.8 |
| 20260508041534 | 2 | 314 | 0.0 | 0.0 | 0.00 | 0.00 | 0.00 | 84 | 1021.7 |
| 20260508040030 | 1 | 15 | 0.0 | 0.0 | 0.00 | 0.00 | 0.00 | 88 | 1021.6 |
| 20260508034529 | 0 | 15 | 0.0 | 0.0 | 0.00 | 0.00 | 0.00 | 92 | 1021.5 |
| 20260508033019 | -1 | 15 | 0.0 | 0.0 | 0.00 | 0.00 | 0.00 | 93 | 1021.5 |
| 20260508031521 | -1 | 15 | 0.0 | 0.0 | 0.00 | 0.00 | 0.00 | 92 | 1021.4 |
| 20260508030019 | -1 | 19 | 0.0 | 0.0 | 0.00 | 0.00 | 0.00 | 94 | 1021.3 |
| 20260508024515 | -2 | 18 | 0.0 | 0.0 | 0.00 | 0.00 | 0.00 | 94 | 1021.2 |
| 20260508023012 | -3 | 17 | 0.0 | 0.0 | 0.00 | 0.00 | 0.00 | 95 | 1021.1 |
| 20260508021511 | -3 | 18 | 0.0 | 0.0 | 0.00 | 0.00 | 0.00 | 94 | 1021.0 |
| 20260508020013 | -3 | 19 | 0.0 | 0.0 | 0.00 | 0.00 | 0.00 | 94 | 1020.9 |
| 20260508014511 | -3 | 314 | 0.0 | 0.0 | 0.00 | 0.00 | 0.00 | 94 | 1020.9 |
| 20260508013009 | -3 | 315 | 0.0 | 0.0 | 0.00 | 0.00 | 0.00 | 93 | 1020.7 |
| 20260508011610 | -2 | 6 | 0.0 | 0.0 | 0.00 | 0.00 | 0.00 | 93 | 1020.7 |
| 20260508010003 | -2 | 351 | 0.0 | 0.0 | 0.00 | 0.00 | 0.00 | 93 | 1020.6 |
| 20260508004504 | -2 | 348 | 0.0 | 0.0 | 0.00 | 0.00 | 0.00 | 93 | 1020.5 |
| 20260508003100 | -2 | 13 | 0.0 | 0.0 | 0.00 | 0.00 | 0.00 | 92 | 1020.4 |
| 20260508001559 | -2 | 345 | 0.0 | 0.0 | 0.00 | 0.00 | 0.00 | 92 | 1020.3 |
| 20260508000059 | -2 | 42 | 0.0 | 0.0 | 0.00 | 0.00 | 0.00 | 92 | 1020.1 |
| 20260507234558 | -2 | 56 | 0.0 | 0.0 | 0.00 | 0.00 | 0.00 | 92 | 1019.9 |
| 20260507233053 | -2 | 80 | 0.0 | 0.0 | 0.00 | 0.00 | 0.00 | 92 | 1019.7 |
| 20260507231552 | -2 | 124 | 0.0 | 0.0 | 0.00 | 0.00 | 0.00 | 92 | 1019.5 |
| 20260507230050 | -2 | 123 | 0.0 | 0.0 | 0.00 | 0.00 | 0.00 | 92 | 1019.5 |
| 20260507224549 | -2 | 156 | 0.0 | 0.0 | 0.00 | 0.00 | 0.00 | 92 | 1019.3 |
| 20260507223051 | -2 | 156 | 0.0 | 0.0 | 0.00 | 0.00 | 0.00 | 92 | 1019.2 |
| 20260507221545 | -2 | 156 | 0.0 | 0.0 | 0.00 | 0.00 | 0.00 | 92 | 1019.1 |
| 20260507220043 | -2 | 156 | 0.0 | 0.0 | 0.00 | 0.00 | 0.00 | 92 | 1018.9 |
| 20260507214541 | -2 | 156 | 0.0 | 0.0 | 0.00 | 0.00 | 0.00 | 91 | 1018.8 |
| 20260507213046 | -1 | 156 | 0.0 | 0.0 | 0.00 | 0.00 | 0.00 | 91 | 1018.7 |
| 20260507211538 | -2 | 156 | 0.0 | 0.0 | 0.00 | 0.00 | 0.00 | 91 | 1018.5 |
| 20260507210037 | -2 | 13 | 0.0 | 0.0 | 0.00 | 0.00 | 0.00 | 91 | 1018.4 |
| 20260507204534 | -2 | 13 | 0.0 | 0.0 | 0.00 | 0.00 | 0.00 | 90 | 1018.3 |
| 20260507203035 | -1 | 13 | 0.0 | 0.0 | 0.00 | 0.00 | 0.00 | 89 | 1018.2 |
| 20260507201533 | -1 | 13 | 0.0 | 0.0 | 0.00 | 0.00 | 0.00 | 89 | 1018.1 |
| 20260507200030 | -1 | 13 | 0.0 | 0.0 | 0.00 | 0.00 | 0.00 | 87 | 1017.9 |
| 20260507194532 | 0 | 13 | 0.0 | 0.0 | 0.00 | 0.00 | 0.00 | 87 | 1017.9 |
| 20260507193029 | 0 | 13 | 0.0 | 0.0 | 0.00 | 0.00 | 0.00 | 85 | 1017.7 |
| 20260507191526 | 0 | 13 | 0.0 | 0.0 | 0.00 | 0.00 | 0.00 | 83 | 1017.6 |
| 20260507190024 | 1 | 13 | 0.0 | 0.0 | 0.00 | 0.00 | 0.00 | 81 | 1017.4 |
| 20260507184524 | 2 | 13 | 0.0 | 0.0 | 0.00 | 0.00 | 0.00 | 77 | 1017.3 |
| 20260507183021 | 3 | 13 | 0.0 | 0.0 | 0.00 | 0.00 | 0.00 | 74 | 1017.2 |
| 20260507181520 | 4 | 82 | 0.0 | 0.0 | 0.00 | 0.00 | 0.00 | 71 | 1017.0 |
| 20260507180023 | 4 | 98 | 0.0 | 1.6 | 0.00 | 0.00 | 0.00 | 70 | 1016.8 |
| 20260507174519 | 5 | 75 | 0.0 | 0.0 | 0.00 | 0.00 | 0.00 | 67 | 1016.8 |
| 20260507173027 | 5 | 75 | 0.0 | 0.0 | 0.00 | 0.00 | 0.00 | 69 | 1016.8 |
| 20260507171516 | 5 | 205 | 0.0 | 0.0 | 0.00 | 0.00 | 0.00 | 70 | 1016.7 |
| 20260507170016 | 4 | 304 | 0.0 | 0.0 | 0.00 | 0.00 | 0.00 | 75 | 1016.6 |
| 20260507164515 | 3 | 195 | 0.0 | 0.0 | 0.00 | 0.00 | 0.00 | 77 | 1016.6 |
| 20260507163013 | 3 | 295 | 0.0 | 4.8 | 0.00 | 0.00 | 0.00 | 76 | 1016.6 |
| 20260507161520 | 4 | 226 | 0.0 | 0.0 | 0.00 | 0.00 | 0.00 | 77 | 1016.5 |
| 20260507160013 | 4 | 163 | 0.0 | 1.6 | 0.00 | 0.00 | 0.00 | 77 | 1016.4 |
| 20260507154510 | 4 | 244 | 0.0 | 1.6 | 0.00 | 0.00 | 0.00 | 78 | 1016.2 |
| 20260507153008 | 5 | 250 | 0.0 | 0.0 | 0.00 | 0.00 | 0.00 | 76 | 1016.1 |
| 20260507151507 | 6 | 235 | 0.0 | 1.6 | 0.00 | 0.00 | 0.00 | 72 | 1015.9 |
| 20260507150006 | 6 | 257 | 0.0 | 4.8 | 0.00 | 0.00 | 0.00 | 69 | 1015.9 |
| 20260507144505 | 5 | 228 | 0.0 | 1.6 | 0.00 | 0.00 | 0.00 | 73 | 1015.8 |
| 20260507143006 | 5 | 249 | 0.0 | 0.0 | 0.00 | 0.00 | 0.00 | 71 | 1015.7 |
| 20260507141503 | 6 | 323 | 0.0 | 4.8 | 0.00 | 0.00 | 0.00 | 73 | 1015.8 |
| 20260507140006 | 5 | 269 | 0.0 | 4.8 | 0.00 | 0.00 | 0.00 | 77 | 1015.7 |
| 20260507134503 | 5 | 173 | 0.0 | 1.6 | 0.00 | 0.00 | 0.00 | 76 | 1015.7 |
| 20260507133003 | 4 | 225 | 0.0 | 1.6 | 0.00 | 0.00 | 0.00 | 76 | 1015.7 |
| 20260507131559 | 5 | 229 | 0.0 | 4.8 | 0.00 | 0.00 | 0.00 | 74 | 1015.6 |
| 20260507130109 | 5 | 236 | 0.0 | 4.8 | 0.00 | 0.00 | 0.00 | 72 | 1015.4 |
| 20260507124606 | 6 | 201 | 0.0 | 4.8 | 0.00 | 0.00 | 0.00 | 67 | 1015.4 |
| 20260507123056 | 6 | 84 | 0.0 | 6.4 | 0.00 | 0.00 | 0.00 | 61 | 1015.3 |